Wind_Speed
18 18 18 19 20 20 18 15 15 14 14 14 14 15 16 16 16 17 18 18 18 19 18 18 17 16 17 15 12 13 14 15 16 15 15 14 13 13 13 12 11 11 11 12 12 13 13 14 13 14 16 16 16 17 17 18 19 19 23 24 21 22 22 20 21 20 18 20 22 20 19 19 17 17 17 16 15 13 11 9 7 6 5 4 3 3 2 2
19 18 19 19 20 21 20 18 16 16 15 15 14 15 15 16 16 17 18 18 19 19 18 18 17 16 16 15 13 13 14 14 15 14 14 13 13 13 12 12 12 11 12 12 13 13 14 13 13 14 15 15 15 16 16 17 18 18 22 24 22 23 23 23 23 22 21 22 22 20 19 19 18 17 16 16 16 14 12 11 10 8 7 6 5 4 3 2
20 19 19 20 20 21 22 21 18 17 17 16 15 15 15 16 16 17 18 18 18 19 18 18 17 16 15 15 13 13 13 14 14 14 13 13 13 12 11 11 11 12 12 13 13 13 13 13 13 14 14 14 14 15 15 15 17 17 20 23 23 22 23 24 24 24 24 23 22 21 20 19 19 18 16 16 16 16 14 13 12 11 10 8 6 6 5 4
20 20 20 20 21 21 22 23 21 18 18 17 17 16 16 16 17 17 18 18 18 19 18 18 17 17 15 14 14 13 12 13 13 13 12 12 12 12 10 10 10 11 12 13 13 13 12 12 13 13 12 12 12 13 14 14 15 16 18 21 21 21 23 23 23 24 23 23 23 22 21 20 20 19 18 17 17 16 15 14 14 13 13 11 8 7 7 5
21 21 20 20 21 21 22 24 24 21 19 19 19 18 17 17 17 18 18 18 18 18 18 18 17 17 15 14 13 13 12 13 12 11 12 11 11 11 9 8 8 9 10 11 12 12 13 13 13 12 11 11 10 11 12 12 13 15 17 19 20 21 22 22 22 22 22 22 22 22 22 21 20 20 20 19 17 16 15 14 14 13 13 11 9 8 7 6
22 21 21 21 21 22 22 23 25 24 21 20 20 20 19 18 18 18 18 18 18 18 18 18 17 16 16 14 13 13 12 12 12 11 11 11 11 10 9 7 7 8 8 10 10 12 13 14 13 12 10 9 9 10 10 10 11 13 15 17 19 20 21 22 21 21 20 21 22 23 23 22 21 20 20 20 17 15 13 13 13 13 12 11 11 10 8 7
23 22 22 22 21 22 23 23 25 26 24 21 21 21 20 20 19 18 19 19 18 18 18 18 17 16 16 14 13 13 11 12 13 12 11 11 10 10 8 7 6 7 8 9 9 11 13 13 13 11 10 9 8 9 8 8 10 12 13 15 17 19 20 21 20 19 19 20 22 22 22 23 22 20 21 21 19 16 13 12 12 12 12 12 11 11 10 9
24 24 23 23 22 22 23 24 24 26 26 24 22 21 21 21 20 19 19 19 19 19 18 18 17 16 16 14 13 12 11 12 13 12 11 10 10 10 9 7 6 7 8 9 9 11 12 13 12 11 9 7 7 8 7 7 9 11 12 14 15 16 18 19 19 18 18 19 20 21 21 22 22 22 22 22 21 18 15 13 12 12 12 12 12 12 12 11
25 25 24 23 23 22 23 24 24 25 27 26 24 22 22 21 21 20 20 19 19 19 18 18 18 17 16 14 13 13 12 12 13 13 12 11 10 10 9 8 7 7 8 9 9 11 12 12 12 11 8 6 6 6 5 6 9 10 12 13 13 15 15 17 18 17 17 18 19 19 19 21 21 22 23 23 21 18 16 15 14 13 12 12 12 12 12 12
25 25 25 25 24 23 23 23 25 25 26 27 26 23 22 22 21 21 20 20 19 19 18 18 18 17 16 15 14 14 13 13 14 14 13 12 11 10 10 9 8 7 7 8 9 11 12 12 11 10 8 7 5 5 4 5 7 8 10 11 13 14 14 15 15 15 16 16 18 18 18 19 19 21 25 24 21 19 17 16 15 14 13 13 12 12 12 11
24 25 25 26 25 24 24 24 24 25 25 27 28 26 23 22 22 21 21 20 19 19 18 18 18 17 16 16 15 14 14 14 14 15 14 13 12 11 10 10 9 8 7 8 9 10 12 12 11 10 9 8 6 5 4 5 6 7 9 11 13 14 14 14 13 13 14 14 15 16 16 17 18 23 26 24 22 20 17 17 15 14 14 15 14 13 13 12
23 24 25 26 26 25 25 24 24 25 26 26 28 28 25 23 22 22 21 21 20 19 19 18 18 17 17 16 15 15 15 15 15 16 15 14 13 12 11 9 8 8 7 7 8 10 12 12 11 10 9 9 8 6 5 5 6 8 9 10 12 13 14 14 12 12 13 12 13 13 14 17 20 23 24 23 23 20 18 18 16 14 14 15 16 15 14 13
24 23 24 25 26 26 26 25 25 25 25 26 27 28 28 25 23 22 21 21 20 19 19 18 18 17 17 17 16 17 17 16 16 16 16 15 14 13 12 10 8 7 7 6 6 7 10 10 10 11 11 11 10 7 6 5 5 7 8 8 11 12 13 14 12 11 12 11 12 13 14 18 22 22 22 23 22 21 19 18 18 16 14 15 16 15 14 13
24 24 24 24 26 26 27 26 26 25 25 26 26 28 29 27 24 23 22 21 20 20 19 19 18 18 18 17 17 18 18 18 17 17 16 16 14 13 13 11 9 7 6 5 4 4 5 8 8 9 11 11 10 8 6 5 5 5 7 8 10 12 12 13 12 10 11 10 11 14 14 18 22 22 22 22 22 21 19 18 18 16 15 14 14 14 14 12
22 25 24 24 25 26 27 27 27 26 24 25 26 27 28 29 27 24 22 22 21 20 19 19 19 18 18 17 17 18 19 18 18 17 17 16 15 13 13 11 10 8 7 6 4 2 4 5 6 8 8 8 8 8 6 5 4 5 8 7 8 12 10 10 11 10 9 10 12 13 14 17 21 20 20 21 21 21 19 18 17 15 14 14 13 14 13 11
20 24 25 25 24 25 26 27 27 27 25 25 26 27 27 29 29 26 23 22 21 21 20 20 19 19 18 16 17 18 19 18 18 17 16 15 15 14 13 12 11 9 8 6 4 3 3 3 5 7 6 6 7 7 5 5 5 8 8 6 9 13 11 8 10 10 7 9 11 12 15 18 19 18 18 19 20 20 20 18 17 15 12 11 12 11 12 14
20 22 25 26 25 24 25 27 27 27 27 26 25 26 27 28 29 28 25 23 22 21 21 20 20 19 18 17 18 19 18 17 16 16 15 14 15 14 14 14 12 10 8 7 6 4 3 2 4 5 5 5 4 5 6 3 4 6 7 8 10 12 13 9 8 9 7 7 8 10 14 16 17 18 17 16 18 19 19 18 18 17 13 10 9 9 15 19
22 22 23 26 26 25 25 26 27 28 28 27 25 25 26 27 28 29 27 24 23 22 21 21 20 19 19 19 19 17 17 17 16 16 15 14 15 15 15 14 13 12 9 8 7 5 4 3 2 4 4 2 2 4 4 2 3 3 5 7 9 10 12 8 7 9 7 9 10 9 11 13 15 17 16 15 15 17 17 17 17 18 16 13 10 11 18 19
25 24 23 25 26 26 25 25 27 28 28 27 26 25 26 26 27 29 29 26 23 23 22 21 21 20 20 19 18 16 16 16 15 15 15 15 15 16 16 15 14 13 11 10 9 7 6 5 3 2 0 1 1 2 1 3 5 5 6 6 8 10 11 7 7 8 7 10 13 11 10 11 13 16 15 14 14 15 16 16 17 17 17 14 14 17 17 16
26 26 24 24 26 27 26 26 26 27 27 28 27 25 25 26 27 29 30 28 25 24 23 22 22 21 20 19 18 17 17 17 16 16 16 15 15 16 17 16 16 14 13 12 11 10 8 6 4 4 3 1 2 3 4 6 8 9 9 8 8 10 10 8 6 7 6 10 14 12 9 9 11 14 14 13 12 13 14 15 16 17 17 16 18 19 17 16
27 27 26 25 25 27 27 27 26 26 27 27 27 26 25 25 27 27 29 30 27 24 24 23 22 21 21 20 20 20 20 19 19 18 16 15 15 15 17 17 17 16 15 12 11 11 10 8 7 5 3 0 2 3 5 7 9 10 11 9 7 9 10 8 6 6 7 10 14 12 10 9 9 12 13 12 12 11 12 14 16 17 18 19 21 20 19 17
25 27 27 26 26 26 27 27 27 26 27 27 27 27 25 25 26 27 28 30 28 25 24 23 23 22 21 20 21 21 21 21 20 19 17 16 15 16 17 18 17 18 17 13 13 13 12 11 8 4 3 1 1 3 5 6 9 10 10 7 5 9 10 8 6 6 8 11 14 14 12 9 9 11 11 10 11 11 11 13 15 17 18 20 21 20 19 17
23 26 27 27 26 26 26 27 27 27 26 27 27 27 26 26 26 27 27 29 29 27 25 24 23 22 21 20 20 21 21 21 20 20 18 16 16 16 16 17 18 18 17 17 18 16 14 13 9 4 3 3 1 3 5 6 8 10 7 2 5 11 11 9 7 7 9 11 14 15 13 9 9 9 9 9 11 11 10 12 13 15 17 19 20 19 18 17
20 23 26 28 27 26 26 26 26 27 27 27 27 28 28 27 26 27 27 28 29 28 27 25 24 22 21 20 20 21 21 21 21 21 19 18 17 16 16 19 18 16 17 19 18 16 15 11 7 6 4 3 1 4 5 5 6 11 9 5 9 11 11 10 9 8 10 11 12 17 17 10 6 7 7 7 10 11 11 12 12 14 16 19 19 18 18 18
19 21 24 27 28 27 26 26 25 26 27 27 28 28 28 28 27 26 27 27 28 29 29 26 25 23 22 21 21 20 19 21 21 21 20 18 17 17 18 19 17 17 19 19 17 17 16 10 6 7 5 3 2 5 6 2 1 10 12 9 11 12 11 12 11 9 12 12 11 14 16 11 6 5 7 8 10 11 11 12 13 13 15 18 19 18 17 17
19 20 22 25 28 28 27 26 25 25 26 27 28 28 28 28 27 27 26 27 28 30 30 28 25 24 23 22 20 20 21 21 21 20 19 18 17 17 17 17 18 19 18 17 18 19 15 9 7 8 6 5 4 5 6 2 1 8 11 10 12 13 13 14 12 11 13 14 12 12 12 10 7 5 7 9 10 11 12 13 13 13 15 17 17 17 18 18
17 20 22 24 26 28 29 27 26 25 25 27 28 28 28 28 28 27 26 27 28 30 31 30 26 24 23 22 21 22 21 21 20 20 19 18 17 16 17 18 19 18 16 17 19 18 14 10 8 8 7 6 4 6 7 2 2 8 10 9 11 14 15 15 14 13 14 14 11 8 10 12 10 7 9 11 11 12 13 13 13 14 15 17 17 17 19 19
15 18 22 24 25 27 28 28 27 25 24 26 27 28 28 28 28 28 27 28 28 29 31 31 28 26 24 23 22 22 20 20 21 20 19 18 18 17 18 18 18 18 16 17 19 19 16 13 11 10 8 7 7 7 6 4 4 8 9 9 12 14 16 16 16 15 13 11 9 8 9 11 11 12 12 12 12 13 13 13 13 14 16 18 17 18 20 20
14 16 20 24 25 25 27 28 26 25 25 26 26 27 28 28 29 28 28 28 28 29 30 30 29 27 25 23 23 21 20 21 21 20 20 19 18 18 17 16 17 16 15 18 21 19 16 13 11 11 11 10 9 6 5 5 6 8 9 10 13 14 16 17 17 14 9 7 9 9 8 8 12 15 13 12 13 13 13 13 13 15 17 18 18 19 20 19
15 15 18 22 25 25 25 27 26 26 26 25 26 27 28 28 29 28 28 30 28 28 30 30 29 28 25 24 22 21 21 21 20 20 20 19 18 17 16 15 16 15 16 20 19 15 12 12 13 13 12 11 7 5 6 6 6 8 10 12 13 13 14 15 13 10 7 8 8 7 8 10 12 15 14 12 13 14 13 13 14 16 18 18 19 20 20 19
16 16 17 20 25 26 25 26 27 27 26 25 26 27 28 28 29 29 30 30 27 27 29 30 30 28 25 23 22 22 22 21 20 20 19 19 18 16 16 15 15 14 16 19 17 13 12 12 13 14 14 11 7 6 7 6 6 8 9 12 13 12 13 12 11 9 7 10 9 7 9 11 12 15 15 14 15 15 14 14 16 17 18 18 19 19 20 20
17 17 17 19 24 26 25 26 28 28 27 26 26 27 28 28 29 30 29 28 27 27 29 29 29 28 25 24 23 23 23 22 21 20 19 18 18 16 16 16 15 15 16 17 17 15 15 16 16 15 14 10 8 7 6 6 7 7 9 11 10 11 12 11 13 13 11 12 12 9 11 13 14 16 16 14 14 14 16 15 15 17 17 18 19 19 20 21
18 18 17 18 24 27 27 27 28 28 27 27 27 27 28 28 29 29 27 27 28 28 28 29 28 28 26 25 24 23 23 23 22 21 19 19 18 17 17 16 15 17 18 19 18 17 19 20 18 15 13 10 8 7 7 8 8 7 8 10 9 10 12 10 12 13 13 15 14 11 13 16 16 15 13 13 14 14 15 14 14 16 17 18 19 20 21 21
19 18 18 19 24 29 29 29 28 28 28 27 26 27 27 27 27 27 26 27 28 28 28 29 29 29 28 26 24 23 24 24 23 22 21 20 18 18 17 16 16 18 19 20 20 21 20 18 17 17 15 11 9 8 9 9 9 8 9 9 9 11 12 10 11 12 12 14 14 11 12 14 15 14 12 13 13 13 14 14 15 16 18 19 19 20 21 21
18 19 19 20 26 30 30 30 29 28 28 26 26 26 25 25 25 26 28 28 29 29 29 29 29 30 29 27 25 24 24 24 23 23 22 21 19 18 17 17 18 18 18 20 22 23 23 19 19 17 14 12 10 11 11 8 8 11 11 10 11 12 13 12 11 11 10 11 12 11 10 11 12 13 13 14 14 14 15 16 17 18 20 20 20 21 21 22
18 19 20 22 29 32 31 30 29 27 27 26 26 25 25 27 28 29 30 29 30 30 29 29 30 31 30 27 26 25 24 23 22 22 22 21 20 19 18 19 19 20 21 23 24 22 21 20 19 14 14 14 12 12 12 8 9 12 11 11 13 13 15 14 13 13 11 10 12 11 10 11 12 11 11 13 14 15 17 17 18 20 22 21 21 22 22 23
17 18 20 26 31 32 31 30 28 27 26 26 25 26 28 30 31 31 31 30 30 31 30 29 31 31 31 29 26 24 23 22 22 22 22 21 20 19 19 20 20 22 24 24 24 23 20 19 19 15 15 15 13 13 13 13 13 12 12 15 16 15 16 17 15 14 14 14 14 13 11 12 15 12 9 10 13 15 17 19 20 21 21 21 21 22 23 24
15 18 23 29 31 31 30 29 28 26 26 25 26 28 30 31 31 31 30 29 30 30 30 30 30 30 29 28 26 24 23 23 22 21 21 21 20 19 20 22 21 23 23 22 23 23 21 18 17 16 14 15 15 13 12 16 17 14 15 18 17 14 15 16 15 13 14 15 15 15 14 14 17 15 10 11 14 16 18 19 20 21 21 20 21 22 23 23
16 22 27 30 30 30 29 28 27 26 26 27 29 31 31 31 31 30 29 29 29 30 30 30 29 28 27 27 27 25 24 23 22 21 21 20 19 19 21 21 21 22 22 22 22 21 20 17 14 16 15 13 14 13 11 15 17 14 16 18 17 16 14 15 16 15 15 16 16 16 16 15 16 15 13 15 17 18 19 20 20 20 20 21 21 22 23 23
19 25 29 30 29 29 28 27 27 27 28 30 32 32 31 31 30 29 28 28 29 29 29 28 26 27 27 27 27 25 24 23 22 21 21 20 19 19 20 20 20 20 21 21 21 20 20 18 13 13 13 10 13 15 13 14 15 14 14 15 17 17 16 16 17 17 17 17 17 17 16 17 18 16 16 18 18 19 20 20 20 20 21 22 22 23 24 24
24 28 29 29 28 27 27 27 28 29 31 32 31 30 30 29 28 27 27 27 27 27 26 26 26 27 27 26 25 25 23 22 21 21 20 20 19 19 19 19 19 20 19 19 19 18 18 18 13 11 11 12 16 16 14 14 15 14 13 13 14 16 17 17 17 18 20 19 18 18 19 21 20 18 16 17 18 19 20 19 20 21 22 23 23 24 24 25
28 29 29 28 27 27 27 27 28 30 32 31 30 30 29 27 26 26 26 26 26 26 25 25 26 26 26 25 25 24 23 22 22 22 21 20 19 18 17 18 17 17 17 17 17 16 16 17 16 13 14 16 16 14 13 13 13 13 13 14 15 17 18 18 17 19 20 21 21 21 22 23 20 16 16 16 17 19 20 20 21 22 23 23 24 25 25 26
30 30 29 28 26 26 26 26 28 30 30 30 29 28 27 26 25 25 25 26 26 25 25 25 24 25 25 25 24 23 22 22 21 21 20 18 17 17 16 16 15 15 16 16 16 16 15 15 16 17 17 16 13 12 12 11 10 12 14 15 17 18 19 19 20 22 20 20 21 19 20 22 19 16 17 17 19 20 21 23 23 24 25 25 25 25 26 28
30 29 27 26 25 25 26 28 31 31 30 29 27 25 25 25 25 25 26 26 26 25 24 23 23 23 23 23 23 22 21 21 20 19 18 17 17 16 16 16 16 16 16 16 16 15 14 15 16 16 15 14 13 13 13 12 11 13 16 18 19 19 19 19 20 21 19 20 20 18 19 21 19 18 19 20 22 23 24 25 26 26 27 26 26 27 28 30
27 26 25 25 25 27 29 31 32 31 29 27 25 24 24 25 25 25 25 25 25 25 23 22 22 22 23 22 22 22 20 21 21 19 17 18 17 16 15 16 16 17 17 16 15 14 13 14 14 14 13 12 12 12 12 14 15 16 17 20 20 19 19 18 19 20 19 19 19 19 20 21 21 21 23 24 26 27 27 28 28 28 28 27 28 29 30 30
26 27 27 28 30 31 32 32 31 29 28 26 24 23 24 25 25 24 23 23 23 22 22 23 23 23 23 22 21 20 20 20 21 20 18 18 16 15 15 15 15 16 16 15 14 13 12 13 13 12 12 13 13 12 13 16 17 19 20 20 20 18 17 17 18 19 20 20 21 21 22 24 25 25 27 28 29 30 32 32 32 31 30 29 29 29 30 29
32 34 34 34 34 33 31 30 29 27 26 24 23 24 24 25 25 24 24 23 24 24 23 22 22 21 21 20 19 19 20 20 21 21 19 18 16 14 14 13 13 14 14 14 14 13 13 14 13 12 13 14 14 14 15 17 18 20 21 20 20 19 18 18 18 19 21 22 22 22 24 27 29 29 30 32 32 33 34 34 34 33 31 30 28 28 28 29
36 36 35 34 32 31 29 28 26 25 24 25 26 27 27 27 26 26 24 23 23 23 21 20 21 19 18 19 18 18 19 20 20 20 19 17 15 14 14 13 14 14 13 13 13 12 14 15 12 12 14 15 15 16 17 19 20 21 21 21 20 19 19 19 19 21 22 22 23 24 26 29 30 30 31 31 30 30 31 30 30 30 30 30 28 25 26 28
34 33 32 31 30 29 28 26 26 26 27 28 29 29 28 27 27 25 23 23 22 21 17 17 18 19 19 19 19 18 18 19 19 18 17 15 14 14 14 13 14 14 12 13 12 12 15 15 12 13 16 16 18 19 20 21 22 22 22 22 20 19 19 19 20 22 23 24 25 25 26 27 29 30 30 28 26 27 27 26 25 25 26 26 25 24 26 29
32 30 30 30 29 29 28 28 28 29 29 30 30 28 26 25 25 23 22 22 22 21 20 17 16 17 18 19 19 20 19 19 18 17 16 15 15 15 15 15 14 14 14 14 13 14 16 15 14 15 18 19 19 20 22 23 24 24 23 21 20 20 20 21 21 22 23 24 24 25 25 26 28 30 29 26 26 27 27 25 24 23 22 22 25 29 31 32
31 30 31 31 31 30 30 30 30 29 29 29 28 27 24 23 22 21 21 22 22 22 22 21 18 17 18 18 19 19 19 18 19 18 17 17 17 17 17 17 16 16 16 15 15 15 16 16 16 17 20 23 21 21 24 24 24 25 22 19 20 21 21 22 22 22 23 23 24 24 25 25 28 29 26 24 26 27 27 27 26 25 25 26 28 31 32 33
31 32 33 32 32 32 31 31 31 30 29 28 27 26 23 22 21 19 19 21 22 22 22 22 21 20 20 19 20 19 19 19 19 19 19 19 18 19 19 18 17 17 17 16 16 17 16 17 18 17 21 25 23 21 23 23 23 24 21 18 20 22 22 22 22 22 23 23 23 23 24 26 28 28 25 24 26 27 28 29 29 28 29 29 30 31 32 34
Wind_Direction
228 220 215 215 211 206 202 199 194 190 188 185 182 178 175 174 174 172 171 170 168 165 163 158 153 150 144 143 141 128 122 118 116 120 121 117 112 108 108 115 124 129 126 122 117 111 103 94 83 74 68 61 56 53 49 48 50 46 46 54 56 55 56 55 55 53 50 50 52 50 46 43 39 37 37 35 36 36 41 45 48 53 53 52 60 86 127 145
230 225 218 215 214 209 205 201 198 193 190 189 186 183 179 177 176 174 173 172 170 167 165 161 155 155 149 145 144 133 124 120 119 123 123 119 115 110 110 118 130 132 129 125 121 115 106 96 85 75 69 62 56 53 49 47 49 45 49 55 52 53 53 51 53 50 48 47 47 46 43 42 38 35 34 34 33 29 35 39 38 40 38 33 35 44 58 84
230 228 222 217 215 213 208 204 200 196 192 191 190 188 185 181 179 177 175 173 172 170 167 164 159 158 155 149 146 137 128 123 123 125 125 122 117 113 113 121 132 132 129 129 126 119 109 99 89 80 73 67 58 54 48 43 46 43 51 57 52 51 52 50 50 47 47 46 45 43 40 39 36 34 32 32 32 27 29 35 35 37 35 26 20 28 38 59
230 229 226 220 217 215 212 207 202 199 195 192 192 191 189 186 184 180 178 176 174 172 169 167 164 161 159 155 149 140 132 128 126 127 126 122 118 117 120 127 133 129 127 130 128 122 114 103 93 86 80 71 59 55 48 41 44 44 52 59 54 52 53 52 50 47 45 44 43 40 37 38 35 33 33 31 32 28 25 30 35 38 38 33 26 27 36 51
228 228 228 224 219 217 214 210 205 201 198 195 193 193 193 191 188 184 181 178 176 174 172 170 169 166 163 160 152 144 139 136 132 128 125 122 120 121 126 133 134 127 125 128 128 126 120 109 99 93 86 75 60 54 47 41 44 48 55 59 56 54 55 55 53 48 44 41 40 37 34 35 34 33 36 35 35 32 26 29 35 37 39 38 36 35 38 48
226 227 227 226 222 219 216 213 208 204 200 198 195 194 194 193 191 188 184 181 179 176 175 173 174 172 168 165 158 149 144 143 137 128 125 127 127 129 133 139 133 121 121 124 125 126 122 113 108 102 92 79 63 55 48 41 44 53 58 60 60 59 58 57 55 51 43 40 39 36 33 33 32 33 39 40 40 37 28 31 36 37 37 36 39 40 41 46
224 225 226 226 225 221 218 216 211 206 203 200 197 195 195 195 193 190 187 184 182 180 178 176 177 177 174 171 164 154 148 145 139 132 132 134 134 138 140 141 132 121 121 119 120 121 121 120 118 110 97 84 70 63 58 51 49 57 61 60 62 62 61 59 56 53 44 38 38 36 34 33 30 32 40 42 42 40 31 31 35 37 37 37 40 44 46 48
223 223 224 225 225 223 221 218 215 210 205 202 200 198 196 196 195 193 190 187 185 183 181 179 179 180 180 176 167 159 153 147 143 139 142 141 140 144 146 146 138 131 126 118 117 119 123 128 126 117 106 91 77 70 67 66 59 61 63 59 58 60 63 62 58 54 46 39 37 36 35 35 31 31 40 43 41 39 33 31 31 34 37 39 43 48 53 54
223 222 222 223 224 224 222 220 217 213 208 204 201 199 198 197 195 195 193 189 187 185 184 183 181 181 183 179 170 165 157 149 149 149 151 151 148 150 150 151 151 144 131 119 115 120 128 132 128 124 118 107 94 84 74 70 65 64 63 54 49 51 59 64 60 52 46 39 37 37 34 36 33 29 37 42 40 36 33 31 29 32 36 40 44 49 55 59
225 223 222 222 223 224 224 221 219 216 211 207 203 201 200 198 196 196 195 192 189 187 187 186 184 184 185 182 175 172 162 154 156 158 161 160 157 156 151 156 162 153 137 121 116 126 135 135 135 134 126 119 112 103 90 66 59 59 57 48 41 42 47 58 60 52 45 38 39 39 35 35 31 32 38 39 37 35 32 31 31 32 34 39 44 46 50 53
225 224 222 221 221 223 224 223 220 217 214 210 206 202 201 200 198 197 196 194 192 190 189 189 188 186 187 185 179 175 169 162 161 164 169 168 165 163 156 161 167 157 144 128 123 131 137 139 139 134 125 122 121 114 93 67 52 45 46 44 38 35 38 46 54 52 45 39 39 41 38 36 31 33 37 35 34 35 32 32 33 32 33 38 42 44 45 46
225 224 223 221 221 222 223 224 222 218 216 213 209 205 202 201 200 198 197 196 194 192 191 191 191 189 189 187 180 176 175 170 167 170 175 175 174 170 159 161 171 164 150 139 133 134 137 141 138 128 122 120 121 117 90 72 56 39 40 46 38 30 32 36 41 45 43 38 34 35 37 40 38 36 35 34 33 33 34 34 31 31 34 37 40 44 46 45
223 224 223 222 221 221 222 223 223 221 217 215 212 208 204 202 201 200 198 197 196 195 193 193 194 193 193 189 182 180 179 179 176 175 179 182 182 175 161 163 176 172 159 152 144 137 135 133 128 121 118 119 121 118 100 77 59 41 34 41 34 26 29 29 29 34 37 34 29 27 28 37 43 40 35 33 32 32 34 36 34 32 35 40 42 44 46 47
222 222 223 222 221 220 221 222 223 222 219 217 215 211 207 204 202 201 199 198 198 197 195 195 196 196 197 192 186 185 184 186 184 180 184 187 188 180 165 167 182 182 171 162 152 142 122 110 109 105 108 117 119 120 112 79 61 30 15 28 19 15 28 27 23 28 30 27 28 32 28 33 42 41 36 33 32 32 33 35 36 36 40 46 47 47 47 46
223 222 222 222 221 220 220 220 221 222 221 218 216 213 210 206 203 201 200 199 198 199 197 197 197 198 200 193 188 191 190 191 191 187 188 190 192 184 170 174 187 189 181 171 165 150 110 101 97 90 95 102 106 125 124 72 40 350 359 29 10 4 21 23 19 22 22 17 21 31 30 33 38 37 33 30 30 32 32 35 35 39 48 51 49 47 47 48
226 222 221 221 221 219 219 219 220 221 221 219 216 215 213 209 205 202 201 200 199 199 199 199 199 200 201 194 192 195 196 198 196 193 193 193 194 187 176 180 190 195 188 179 181 172 129 113 92 83 83 79 91 120 101 37 356 334 345 7 355 356 4 13 21 14 9 11 11 20 24 30 32 30 29 24 25 30 31 34 34 37 46 52 50 42 45 54
228 224 221 220 220 219 218 218 219 220 221 220 217 216 215 212 208 204 201 200 200 200 200 201 201 202 201 196 198 199 200 203 201 197 195 193 196 191 183 182 191 199 193 186 194 188 159 129 99 91 82 66 68 86 72 8 312 325 332 338 339 344 345 355 18 8 359 351 354 17 20 24 25 21 25 19 20 27 29 32 33 33 30 34 42 39 50 58
228 225 222 219 219 219 218 217 218 218 219 220 218 216 215 214 211 207 203 201 200 201 201 201 201 203 201 200 203 201 201 204 202 200 195 195 196 194 190 185 191 201 194 192 201 192 184 187 129 88 68 50 37 71 90 241 277 320 307 316 322 322 328 344 7 4 357 324 329 18 21 17 19 15 19 17 17 23 26 31 32 31 26 17 20 40 53 58
226 225 222 220 218 218 218 216 217 217 217 218 218 217 215 215 213 209 206 202 200 201 201 200 200 203 201 202 203 199 199 201 202 201 197 199 198 196 195 188 191 201 196 195 200 197 200 205 162 99 341 270 14 36 27 313 327 327 304 304 305 303 314 335 355 355 355 322 328 5 10 5 11 9 12 14 15 18 22 29 29 28 23 14 21 35 45 47
224 223 222 220 218 217 217 216 216 216 217 217 217 217 215 215 214 211 207 204 201 201 202 200 201 202 201 200 198 194 193 196 200 200 198 200 200 200 198 192 194 199 200 200 199 202 206 213 203 184 208 240 20 356 348 335 327 327 325 319 299 288 299 320 337 338 341 329 333 350 349 347 357 360 7 11 12 13 17 24 27 26 18 13 20 22 27 33
223 222 220 219 217 217 216 216 215 215 215 216 215 216 215 214 214 212 208 206 203 202 203 202 202 202 201 199 196 193 191 192 196 196 197 200 201 203 200 195 196 198 203 205 201 204 204 211 220 199 191 294 357 333 336 323 319 326 327 327 306 283 291 308 322 327 325 328 335 336 327 327 335 346 359 5 7 7 13 21 23 22 16 11 13 10 14 22
223 221 220 218 217 216 216 216 215 215 214 214 214 214 214 214 214 213 210 206 203 203 204 203 203 203 201 199 198 196 194 192 192 192 196 200 200 203 202 199 199 201 205 202 200 207 208 214 220 190 178 222 301 324 329 318 317 317 319 340 321 281 288 296 303 321 317 322 333 329 317 313 315 332 350 357 1 1 8 20 20 16 12 9 9 6 6 8
224 221 219 218 216 215 215 215 215 214 213 213 214 213 212 212 213 212 211 207 203 203 204 204 204 202 200 200 199 199 197 194 191 192 196 199 200 202 203 203 206 207 203 199 204 204 203 217 219 176 182 218 264 313 320 330 326 311 307 328 276 271 280 287 291 309 308 316 328 317 304 298 297 317 339 345 353 357 4 17 16 9 6 6 6 5 2 1
225 222 220 218 216 215 214 214 214 213 212 212 213 212 211 211 211 211 210 208 203 202 204 204 204 202 200 200 200 201 200 196 193 194 196 198 199 199 200 207 212 208 201 205 211 204 203 221 212 169 185 217 257 301 313 347 329 305 297 258 261 271 275 287 296 296 292 302 318 309 306 314 306 312 331 335 342 349 357 9 10 4 0 2 4 2 1 360
227 223 221 218 217 215 214 213 213 212 211 211 212 211 210 209 210 210 209 208 204 203 204 204 203 202 199 199 200 199 199 198 197 197 199 200 200 198 201 208 211 206 206 211 213 209 217 231 204 179 193 216 241 279 297 5 261 288 296 281 277 286 286 292 298 293 289 295 312 312 313 327 326 314 326 326 332 337 343 355 1 358 353 357 1 358 355 355
229 224 221 218 217 215 213 213 212 211 210 210 211 210 209 208 208 208 208 207 204 203 204 204 203 202 199 199 197 197 198 198 199 199 201 203 203 204 204 205 206 208 212 213 209 212 225 232 194 184 200 219 253 277 285 336 160 264 285 290 287 291 295 298 298 296 294 299 314 316 302 303 310 316 319 319 323 326 330 342 350 349 345 351 356 351 348 348
229 225 221 218 216 214 213 212 211 210 209 209 209 208 208 207 206 206 205 206 204 202 204 203 202 202 201 198 196 197 198 197 199 202 203 205 206 206 205 204 207 213 215 211 212 217 225 222 194 187 201 211 245 268 274 299 205 251 276 294 289 291 297 299 302 304 301 300 306 302 289 299 313 316 311 314 318 317 321 332 339 338 336 343 349 344 340 341
230 226 221 217 215 213 212 211 210 209 207 208 207 207 207 206 206 205 203 206 204 202 205 203 201 202 201 198 198 198 196 197 201 202 203 207 207 205 205 206 209 214 211 206 211 217 220 215 197 193 205 213 228 245 269 292 256 259 283 295 288 291 294 293 300 306 305 306 302 289 291 303 307 308 309 312 313 311 314 324 330 329 330 337 342 338 335 337
232 228 222 217 213 212 210 207 206 206 207 207 206 205 205 205 205 204 203 205 203 201 205 204 202 203 200 199 200 197 196 199 203 202 203 206 208 208 207 207 211 214 207 200 207 216 219 210 197 200 209 221 234 247 269 284 278 281 297 300 294 295 293 292 299 302 299 301 293 286 293 293 291 300 307 308 307 308 311 318 322 322 327 334 336 333 332 335
235 231 224 217 212 209 207 203 202 204 205 205 204 204 204 204 204 202 203 205 201 200 204 203 203 203 201 200 199 197 199 202 204 205 206 206 207 209 208 210 214 214 206 204 212 222 216 199 198 208 218 228 241 255 266 280 290 293 301 306 306 303 299 299 301 298 294 293 289 283 293 292 287 296 308 312 310 307 309 315 317 319 326 331 331 330 330 333
236 234 227 217 210 206 202 199 199 201 203 203 203 202 202 203 202 202 204 204 200 200 203 203 203 202 201 200 199 199 201 204 206 207 209 210 210 209 209 211 213 211 208 209 216 220 210 201 206 214 222 231 240 246 262 281 289 297 308 312 313 310 309 311 303 300 301 296 301 304 297 292 286 296 312 317 311 306 308 314 315 319 325 327 327 326 326 329
235 233 229 218 207 202 198 196 197 199 199 201 201 201 201 201 202 203 203 202 200 201 202 203 202 200 199 200 200 200 202 205 208 210 212 213 215 213 211 210 207 205 205 208 212 211 207 209 213 219 223 225 233 246 267 284 282 292 306 310 315 309 309 312 301 303 307 294 298 304 297 295 294 302 315 314 307 303 306 311 314 318 324 325 324 322 322 325
232 232 228 217 204 196 194 194 195 196 197 199 200 200 200 200 201 202 200 199 200 200 201 201 200 199 199 200 200 200 203 206 208 210 210 212 215 214 212 212 204 198 199 203 205 203 209 218 219 217 221 222 226 238 253 268 272 279 294 303 308 300 305 310 298 302 308 299 302 303 293 295 298 304 314 311 306 303 302 306 312 318 323 324 322 320 322 324
230 229 227 214 198 192 191 192 193 195 196 197 198 199 199 200 200 198 198 199 198 198 200 200 198 198 199 199 199 200 203 206 207 208 208 208 211 211 212 207 196 198 200 200 199 195 200 224 235 222 217 224 229 230 234 248 268 277 281 288 292 291 298 304 297 301 303 299 303 300 289 293 298 302 306 306 306 303 300 302 309 316 321 322 321 320 322 324
229 226 223 208 192 188 189 189 191 194 195 195 196 196 196 196 196 196 197 198 196 196 198 198 197 198 199 198 198 199 202 205 206 207 208 207 206 207 209 200 193 197 195 193 202 199 193 212 234 225 216 224 229 234 239 244 265 277 285 286 286 291 295 296 293 293 296 301 302 301 303 301 295 296 298 297 298 299 299 300 305 311 315 318 318 318 319 320
228 222 216 199 187 185 187 187 189 191 192 192 193 193 192 192 193 195 196 195 194 195 196 196 197 198 198 198 199 200 201 203 205 206 208 207 205 204 202 198 194 191 189 193 202 202 198 215 231 222 217 227 226 234 243 237 248 271 289 285 281 289 291 291 293 293 296 302 296 300 320 313 296 291 292 293 295 297 298 300 302 307 311 314 315 315 316 318
225 215 202 188 182 183 184 185 187 188 189 189 190 190 191 193 194 195 195 194 193 194 194 195 198 198 197 197 199 201 201 203 205 206 207 207 206 203 199 198 194 192 197 203 202 199 200 220 233 224 220 230 231 235 240 237 247 269 282 280 287 296 287 280 287 297 301 303 297 297 307 303 296 292 291 299 303 302 302 302 303 306 309 311 312 312 314 316
215 199 186 180 179 180 181 183 185 185 185 186 187 190 191 192 193 194 194 193 193 194 194 195 197 197 197 197 199 202 203 204 205 207 208 207 205 202 200 200 196 196 204 208 206 205 203 213 231 232 227 233 238 240 243 244 251 259 266 275 286 293 288 283 287 294 296 300 301 300 302 300 297 297 300 305 306 303 303 302 303 306 308 309 309 309 311 314
195 181 176 174 175 177 180 182 182 181 182 183 186 190 191 191 192 193 192 191 193 193 194 196 196 194 195 198 200 203 205 206 207 206 207 207 205 201 201 203 202 202 208 210 209 211 209 208 223 234 235 242 247 246 245 251 258 260 266 276 279 278 282 284 286 288 290 296 298 297 301 297 291 298 306 304 302 301 300 300 302 304 306 307 307 306 308 312
177 172 171 171 173 176 180 181 180 180 182 185 187 188 189 191 191 190 190 191 192 193 194 194 192 191 194 198 201 203 205 206 206 206 206 205 202 200 202 206 207 207 210 211 210 211 212 211 217 231 237 245 249 247 246 257 270 273 276 284 285 285 287 283 287 290 288 293 296 294 295 289 287 299 303 298 298 299 298 299 301 301 303 305 305 304 306 309
170 169 170 170 172 177 180 180 180 181 183 185 186 187 188 189 189 187 188 189 190 191 191 190 189 190 193 198 201 202 203 205 205 205 203 200 198 199 202 204 208 209 209 211 211 212 215 215 221 234 236 236 246 254 260 269 276 278 280 285 288 293 294 293 296 295 292 293 292 290 291 287 290 298 296 292 295 296 297 298 297 298 300 301 301 301 303 307
169 168 170 171 174 179 180 180 181 183 183 183 184 185 185 186 185 184 184 185 185 185 186 187 188 189 190 193 198 200 199 200 202 201 199 197 197 200 202 202 205 208 206 205 208 211 213 215 221 230 236 244 255 264 269 271 276 279 283 293 300 299 296 294 292 289 292 294 291 292 293 289 290 292 291 293 294 293 294 293 292 293 293 294 296 296 297 303
170 169 170 173 177 179 178 178 181 183 183 182 182 182 180 180 178 177 177 179 179 180 182 184 185 188 189 190 192 195 196 196 198 198 196 194 196 197 199 199 201 202 198 197 204 211 215 219 225 233 242 252 258 257 259 261 270 287 298 308 310 304 298 294 287 284 285 286 288 292 290 287 290 291 290 293 293 292 291 289 289 289 287 288 291 291 293 300
170 170 172 174 176 174 174 176 179 181 181 180 178 175 173 171 170 170 172 174 175 177 179 180 182 184 186 187 188 188 191 192 193 195 191 190 193 193 192 193 192 193 195 199 207 214 219 224 232 241 248 256 255 252 258 264 274 297 313 317 314 306 300 296 291 288 284 278 282 284 277 278 286 290 292 292 291 290 288 286 285 283 282 284 287 289 292 296
166 169 170 170 168 168 173 176 177 178 176 173 168 166 166 166 166 168 169 171 173 174 173 173 177 180 180 184 186 185 187 188 188 190 190 190 193 191 190 192 192 194 200 205 210 215 219 226 238 249 252 256 265 273 285 294 301 311 317 319 316 309 302 299 296 293 286 282 287 287 282 284 290 292 293 291 289 287 284 282 280 279 279 280 283 288 291 292
155 155 155 158 161 167 172 174 173 170 166 164 162 163 164 164 164 164 164 166 167 166 168 170 173 177 178 181 183 182 185 186 185 188 190 192 195 194 196 198 198 201 206 211 214 219 225 228 239 254 262 268 281 296 304 307 308 309 311 315 315 311 306 304 301 296 295 299 300 294 290 292 292 291 289 287 285 283 281 278 275 273 272 273 278 283 284 283
143 145 149 156 162 166 169 167 163 161 159 159 158 156 155 155 155 154 155 159 159 159 164 168 170 174 176 178 181 183 185 187 188 189 192 195 197 199 202 205 207 209 212 216 220 226 233 235 238 253 268 278 287 295 299 300 301 303 305 309 311 311 309 305 302 298 298 300 296 291 291 291 290 287 284 283 284 285 286 285 282 277 271 270 273 276 275 275
144 148 154 159 161 161 160 157 154 152 152 151 148 146 145 146 147 147 149 153 156 157 162 167 168 169 173 177 181 187 190 192 193 193 194 198 200 203 207 211 215 217 217 222 227 234 241 245 250 262 270 278 285 289 293 297 299 299 300 304 307 308 304 300 297 294 291 288 284 284 286 286 287 287 285 287 291 292 292 290 288 287 283 278 275 273 275 279
149 151 155 157 154 151 149 147 146 145 144 144 143 142 142 143 146 147 148 150 152 150 154 166 170 169 174 179 182 188 195 198 199 202 203 204 207 211 214 218 220 222 226 233 242 249 253 256 265 274 277 281 285 290 293 296 296 296 298 301 303 300 296 292 288 285 284 283 283 284 284 284 285 284 282 285 286 285 284 283 285 291 292 284 275 275 284 290
150 149 150 147 144 142 141 141 142 142 141 142 142 142 143 145 149 152 152 153 155 151 150 163 176 175 177 183 186 190 195 197 199 206 211 211 214 217 219 223 227 232 238 245 251 257 260 266 272 278 282 282 284 289 293 293 293 294 295 298 297 294 290 287 285 284 284 284 285 286 285 284 282 280 281 284 284 284 287 290 294 297 293 281 275 280 289 295
147 145 142 140 139 139 138 140 141 140 141 144 145 144 144 148 153 160 162 163 165 165 162 166 178 182 181 187 192 194 197 199 199 204 211 213 217 221 224 228 232 237 242 246 253 258 263 272 278 284 287 285 285 290 291 292 293 292 292 295 295 291 289 287 287 286 286 287 287 287 286 285 285 285 288 292 293 293 295 297 299 297 290 283 282 285 289 293
144 141 140 140 139 139 139 139 140 140 142 146 148 147 148 153 158 165 173 175 175 178 179 179 184 188 189 192 197 201 204 207 208 212 218 222 225 229 232 235 238 242 247 251 257 263 271 278 280 287 291 289 290 291 289 290 293 291 291 293 291 290 291 291 291 291 290 290 289 288 288 289 290 291 293 295 295 295 296 298 298 295 291 289 289 289 290 291
Height
5914 5915 5917 5918 5919 5921 5922 5923 5924 5925 5927 5928 5929 5929 5930 5931 5932 5933 5935 5936 5937 5938 5940 5941 5942 5943 5944 5945 5947 5947 5948 5949 5949 5950 5950 5951 5952 5952 5952 5953 5953 5953 5953 5953 5953 5953 5953 5953 5953 5952 5952 5952 5951 5950 5950 5949 5948 5947 5945 5946 5946 5944 5943 5942 5941 5940 5938 5937 5936 5935 5934 5933 5932 5931 5930 5929 5928 5927 5926 5926 5925 5924 5924 5923 5923 5923 5923 5924
5912 5913 5915 5916 5918 5919 5921 5922 5923 5924 5926 5927 5928 5929 5930 5931 5932 5933 5934 5935 5937 5938 5939 5941 5942 5943 5944 5945 5946 5947 5948 5949 5949 5950 5950 5951 5952 5952 5953 5953 5953 5954 5954 5953 5953 5953 5954 5954 5954 5954 5953 5953 5952 5952 5951 5950 5950 5948 5947 5948 5947 5945 5945 5943 5942 5941 5939 5938 5937 5936 5935 5934 5933 5932 5931 5930 5929 5928 5927 5927 5926 5925 5925 5924 5924 5924 5924 5924
5910 5911 5913 5915 5916 5918 5919 5921 5922 5923 5925 5926 5927 5928 5929 5930 5931 5933 5934 5935 5936 5937 5939 5940 5942 5943 5944 5945 5946 5947 5948 5949 5949 5950 5951 5951 5952 5953 5953 5954 5954 5954 5954 5954 5954 5954 5954 5955 5955 5955 5955 5954 5954 5953 5953 5952 5951 5950 5949 5950 5949 5947 5946 5945 5944 5942 5941 5940 5938 5937 5937 5935 5935 5933 5932 5931 5930 5929 5928 5927 5926 5925 5925 5925 5924 5924 5924 5924
5908 5909 5911 5913 5914 5916 5918 5919 5921 5922 5924 5925 5926 5927 5929 5930 5931 5932 5933 5935 5936 5937 5938 5940 5941 5942 5944 5945 5946 5947 5948 5949 5950 5950 5951 5951 5952 5953 5954 5954 5955 5955 5955 5955 5955 5955 5955 5955 5955 5956 5956 5956 5955 5955 5954 5953 5952 5951 5951 5951 5950 5949 5948 5946 5945 5944 5943 5942 5940 5939 5938 5937 5936 5935 5933 5932 5931 5930 5928 5927 5927 5926 5925 5925 5924 5924 5924 5924
5906 5907 5909 5911 5913 5914 5916 5918 5919 5921 5923 5924 5925 5927 5928 5929 5930 5932 5933 5934 5935 5936 5938 5940 5941 5942 5943 5945 5946 5947 5948 5949 5950 5951 5951 5952 5953 5954 5954 5955 5955 5955 5955 5955 5955 5955 5956 5956 5956 5957 5957 5957 5957 5956 5955 5955 5954 5953 5952 5952 5951 5950 5949 5948 5947 5946 5945 5943 5942 5941 5940 5939 5938 5936 5934 5933 5932 5931 5929 5928 5927 5926 5926 5925 5925 5924 5924 5924
5904 5906 5907 5909 5911 5912 5914 5916 5918 5920 5921 5923 5924 5926 5927 5928 5930 5931 5932 5934 5935 5936 5937 5939 5940 5942 5943 5944 5945 5947 5948 5949 5950 5951 5952 5952 5953 5954 5955 5955 5956 5956 5956 5956 5956 5956 5957 5957 5957 5957 5958 5958 5958 5957 5956 5956 5955 5954 5953 5953 5952 5951 5951 5950 5949 5948 5946 5945 5944 5943 5942 5940 5938 5937 5935 5934 5933 5932 5931 5929 5928 5927 5926 5926 5925 5925 5924 5924
5902 5904 5905 5907 5909 5910 5912 5914 5916 5918 5920 5922 5923 5925 5926 5927 5929 5930 5932 5933 5934 5936 5937 5938 5940 5941 5942 5944 5945 5947 5948 5949 5950 5951 5952 5953 5953 5954 5955 5956 5956 5956 5956 5956 5956 5957 5957 5957 5958 5958 5958 5958 5959 5958 5957 5957 5956 5955 5955 5954 5953 5952 5952 5951 5950 5949 5948 5947 5945 5945 5943 5941 5938 5936 5935 5934 5933 5933 5931 5930 5929 5928 5927 5927 5926 5926 5925 5925
5900 5901 5903 5905 5906 5908 5910 5912 5914 5916 5918 5920 5922 5924 5925 5927 5928 5929 5931 5932 5934 5935 5936 5938 5939 5941 5942 5943 5945 5946 5947 5949 5950 5951 5951 5952 5954 5954 5955 5956 5956 5957 5957 5957 5957 5957 5957 5958 5958 5959 5959 5959 5959 5959 5958 5958 5957 5956 5956 5955 5954 5953 5953 5952 5952 5951 5950 5948 5947 5946 5945 5943 5940 5937 5936 5935 5934 5933 5932 5931 5930 5929 5928 5927 5927 5926 5926 5925
5897 5899 5901 5903 5904 5906 5908 5910 5912 5914 5916 5918 5921 5922 5924 5925 5927 5928 5930 5931 5933 5934 5936 5937 5938 5940 5941 5943 5944 5946 5947 5948 5949 5950 5951 5952 5953 5954 5955 5956 5956 5957 5957 5957 5957 5957 5958 5958 5959 5959 5960 5960 5960 5959 5959 5958 5957 5957 5957 5956 5955 5955 5954 5953 5953 5952 5951 5950 5949 5947 5946 5945 5942 5940 5937 5935 5934 5934 5933 5932 5931 5930 5929 5928 5928 5927 5926 5926
5895 5897 5899 5900 5902 5904 5906 5908 5910 5912 5914 5917 5919 5921 5923 5924 5926 5927 5929 5930 5932 5933 5935 5936 5938 5939 5940 5942 5943 5945 5946 5948 5949 5950 5950 5952 5953 5954 5955 5956 5956 5957 5957 5957 5957 5957 5958 5959 5959 5960 5960 5960 5960 5960 5960 5959 5958 5958 5958 5957 5957 5956 5955 5954 5953 5953 5952 5951 5950 5949 5947 5946 5944 5941 5938 5936 5935 5935 5934 5933 5932 5931 5930 5929 5928 5928 5927 5926
5892 5895 5896 5898 5900 5902 5903 5905 5908 5910 5912 5915 5917 5919 5921 5923 5924 5926 5928 5929 5931 5932 5934 5935 5937 5938 5940 5941 5943 5944 5945 5947 5948 5949 5950 5951 5952 5954 5955 5956 5956 5957 5957 5957 5957 5958 5958 5959 5960 5960 5960 5960 5960 5960 5960 5960 5960 5959 5959 5958 5958 5957 5956 5955 5955 5954 5952 5951 5951 5949 5948 5946 5943 5941 5939 5938 5937 5936 5935 5934 5933 5932 5931 5930 5929 5928 5927 5927
5890 5892 5894 5896 5898 5900 5901 5903 5906 5908 5910 5913 5915 5917 5919 5921 5923 5925 5926 5928 5930 5931 5933 5934 5936 5937 5939 5940 5942 5943 5945 5946 5947 5949 5949 5950 5952 5953 5955 5955 5956 5956 5957 5957 5957 5958 5958 5959 5960 5960 5960 5960 5961 5961 5961 5961 5960 5960 5959 5959 5959 5958 5957 5956 5956 5955 5953 5952 5951 5950 5949 5946 5943 5942 5942 5940 5939 5938 5937 5935 5934 5933 5932 5931 5930 5929 5928 5927
5888 5890 5892 5894 5896 5898 5899 5901 5903 5906 5908 5911 5913 5915 5917 5920 5922 5924 5925 5927 5929 5930 5932 5933 5935 5936 5937 5939 5941 5942 5944 5945 5946 5948 5949 5950 5951 5953 5954 5955 5955 5956 5956 5957 5957 5957 5958 5959 5959 5960 5960 5961 5961 5962 5962 5962 5961 5961 5960 5959 5959 5959 5958 5958 5957 5956 5954 5952 5951 5951 5949 5946 5944 5944 5944 5942 5941 5939 5938 5937 5935 5934 5933 5932 5931 5930 5929 5928
5886 5888 5889 5892 5894 5895 5897 5899 5901 5903 5906 5909 5911 5913 5916 5918 5920 5922 5924 5926 5927 5929 5931 5932 5933 5935 5936 5938 5940 5941 5943 5944 5946 5947 5948 5949 5951 5952 5954 5955 5955 5955 5956 5956 5957 5957 5958 5958 5959 5960 5960 5961 5962 5962 5962 5962 5962 5961 5960 5959 5959 5959 5959 5958 5958 5957 5955 5953 5952 5951 5950 5947 5945 5946 5946 5944 5942 5941 5939 5938 5936 5934 5933 5932 5931 5930 5929 5928
5883 5885 5887 5889 5891 5893 5895 5897 5899 5901 5904 5906 5909 5911 5914 5916 5918 5921 5923 5924 5926 5928 5929 5931 5932 5934 5935 5937 5939 5940 5942 5943 5945 5946 5947 5949 5950 5952 5953 5954 5954 5955 5956 5956 5956 5957 5957 5958 5958 5959 5960 5961 5962 5962 5962 5962 5962 5961 5961 5960 5960 5959 5959 5959 5959 5958 5956 5954 5953 5952 5950 5948 5947 5948 5947 5946 5944 5942 5940 5939 5937 5935 5934 5933 5932 5931 5929 5928
5881 5883 5885 5887 5889 5891 5893 5895 5897 5899 5902 5904 5907 5909 5912 5914 5917 5919 5921 5923 5925 5926 5928 5929 5931 5933 5934 5936 5938 5939 5941 5942 5944 5945 5947 5948 5950 5951 5953 5953 5954 5954 5955 5956 5956 5957 5957 5957 5958 5959 5960 5961 5962 5962 5962 5964 5963 5961 5961 5962 5961 5960 5959 5959 5959 5958 5957 5955 5953 5952 5951 5949 5949 5949 5949 5947 5945 5944 5942 5940 5938 5935 5933 5932 5931 5931 5929 5928
5879 5881 5882 5885 5887 5889 5891 5893 5895 5897 5899 5902 5905 5907 5910 5912 5915 5917 5919 5922 5923 5925 5927 5928 5930 5932 5933 5935 5937 5938 5940 5941 5943 5944 5946 5948 5949 5950 5952 5953 5953 5954 5955 5956 5956 5957 5957 5957 5958 5959 5960 5961 5961 5962 5964 5967 5966 5963 5963 5963 5962 5961 5960 5960 5960 5959 5958 5956 5954 5953 5952 5951 5950 5950 5949 5948 5946 5944 5943 5941 5940 5937 5934 5932 5931 5930 5930 5930
5876 5878 5880 5882 5884 5887 5889 5891 5893 5895 5898 5900 5903 5905 5908 5910 5913 5915 5918 5920 5922 5924 5925 5927 5929 5930 5932 5934 5935 5937 5939 5941 5942 5944 5945 5946 5948 5949 5951 5952 5953 5954 5955 5955 5956 5956 5957 5957 5958 5959 5960 5961 5961 5962 5964 5966 5965 5964 5964 5964 5963 5962 5961 5961 5960 5959 5958 5956 5954 5954 5953 5952 5952 5951 5950 5949 5947 5945 5944 5942 5941 5939 5937 5933 5931 5931 5932 5931
5874 5876 5878 5880 5882 5884 5886 5889 5891 5893 5896 5898 5901 5903 5906 5908 5911 5913 5916 5918 5921 5922 5924 5926 5927 5929 5931 5933 5934 5936 5938 5940 5941 5943 5944 5945 5947 5948 5950 5951 5952 5953 5954 5955 5956 5956 5957 5957 5958 5960 5961 5961 5960 5961 5962 5962 5962 5963 5963 5963 5963 5962 5961 5961 5960 5960 5959 5957 5954 5954 5954 5952 5952 5951 5951 5949 5947 5946 5944 5943 5942 5941 5938 5935 5933 5934 5933 5932
5871 5873 5875 5877 5880 5882 5884 5887 5889 5891 5894 5896 5899 5901 5904 5906 5908 5911 5914 5917 5919 5920 5922 5924 5926 5927 5929 5931 5933 5935 5937 5939 5940 5941 5943 5944 5946 5947 5948 5950 5951 5952 5953 5954 5955 5956 5956 5957 5958 5959 5960 5959 5959 5960 5960 5961 5961 5961 5962 5962 5962 5962 5961 5960 5960 5960 5959 5957 5955 5954 5954 5953 5952 5951 5951 5949 5948 5946 5945 5944 5943 5942 5940 5936 5935 5935 5933 5932
5868 5871 5873 5875 5877 5879 5882 5884 5887 5889 5891 5894 5897 5899 5902 5904 5906 5909 5912 5914 5917 5919 5921 5923 5925 5926 5928 5930 5932 5933 5935 5937 5938 5940 5942 5943 5945 5946 5947 5949 5950 5951 5952 5953 5954 5955 5956 5957 5957 5958 5958 5958 5959 5959 5959 5960 5960 5960 5961 5961 5961 5961 5960 5960 5960 5959 5959 5957 5956 5955 5954 5953 5952 5951 5951 5950 5948 5947 5945 5944 5943 5942 5940 5937 5936 5936 5934 5933
5866 5868 5870 5872 5875 5877 5880 5882 5884 5887 5889 5892 5894 5897 5899 5902 5904 5907 5909 5912 5916 5918 5919 5921 5923 5925 5927 5929 5930 5932 5933 5935 5937 5939 5941 5942 5944 5945 5946 5948 5949 5950 5951 5952 5954 5955 5956 5957 5957 5957 5958 5958 5959 5959 5959 5959 5960 5960 5960 5961 5962 5960 5959 5959 5959 5959 5958 5957 5956 5955 5954 5952 5952 5951 5951 5950 5948 5947 5946 5945 5944 5943 5941 5939 5938 5937 5936 5935
5863 5865 5868 5870 5872 5875 5877 5880 5882 5885 5887 5890 5892 5895 5897 5899 5902 5905 5908 5910 5914 5916 5918 5920 5922 5924 5926 5927 5929 5931 5933 5934 5936 5938 5939 5941 5942 5944 5945 5946 5947 5948 5950 5952 5953 5954 5956 5956 5956 5956 5957 5958 5958 5959 5959 5959 5959 5959 5960 5963 5963 5960 5959 5957 5957 5958 5958 5956 5956 5954 5952 5951 5951 5951 5950 5950 5949 5948 5947 5946 5945 5944 5942 5941 5940 5938 5937 5936
5861 5863 5865 5867 5870 5872 5875 5877 5880 5883 5885 5888 5890 5892 5895 5897 5900 5903 5906 5908 5912 5914 5916 5918 5920 5923 5924 5926 5928 5930 5932 5933 5935 5936 5938 5939 5941 5942 5944 5945 5946 5948 5949 5950 5951 5953 5955 5955 5955 5956 5957 5957 5958 5958 5958 5959 5961 5960 5958 5961 5960 5958 5958 5957 5956 5957 5956 5956 5955 5952 5949 5949 5950 5950 5949 5949 5948 5948 5947 5946 5945 5944 5943 5941 5940 5939 5937 5936
5859 5861 5862 5865 5867 5870 5872 5875 5878 5880 5883 5885 5887 5890 5893 5895 5898 5901 5904 5907 5910 5912 5914 5917 5919 5921 5923 5925 5927 5929 5931 5932 5933 5935 5936 5938 5940 5941 5942 5943 5945 5947 5948 5949 5951 5952 5953 5953 5954 5956 5956 5957 5958 5958 5958 5959 5962 5961 5957 5958 5958 5957 5957 5957 5956 5956 5955 5954 5953 5951 5950 5949 5950 5949 5949 5948 5948 5947 5946 5945 5945 5944 5943 5942 5940 5939 5937 5936
5857 5858 5860 5862 5864 5867 5870 5873 5875 5878 5880 5883 5885 5888 5891 5894 5896 5899 5902 5905 5907 5910 5912 5915 5918 5920 5922 5924 5926 5928 5930 5931 5932 5934 5935 5937 5938 5939 5941 5942 5944 5945 5946 5948 5949 5951 5951 5952 5954 5955 5956 5956 5957 5958 5957 5957 5960 5961 5957 5956 5957 5957 5957 5956 5956 5956 5954 5952 5952 5952 5951 5950 5949 5948 5949 5948 5947 5946 5946 5945 5944 5943 5942 5941 5940 5939 5937 5936
5854 5856 5858 5860 5862 5865 5868 5870 5873 5876 5878 5880 5883 5886 5889 5892 5894 5897 5900 5903 5905 5908 5910 5913 5916 5919 5921 5923 5925 5926 5928 5930 5932 5933 5934 5936 5937 5938 5940 5941 5942 5943 5945 5947 5948 5949 5951 5952 5954 5954 5955 5956 5957 5957 5956 5956 5958 5959 5956 5956 5956 5956 5956 5955 5954 5955 5953 5952 5952 5952 5950 5949 5948 5948 5948 5947 5946 5946 5945 5944 5943 5942 5942 5941 5940 5939 5937 5935
5852 5853 5855 5857 5860 5862 5865 5868 5871 5874 5876 5878 5881 5884 5887 5890 5893 5895 5898 5901 5903 5906 5909 5911 5915 5917 5919 5922 5923 5925 5927 5929 5930 5931 5933 5935 5936 5937 5938 5940 5941 5942 5943 5946 5948 5949 5950 5951 5952 5953 5954 5955 5956 5956 5955 5955 5956 5956 5955 5955 5955 5955 5954 5954 5954 5954 5953 5951 5951 5951 5950 5949 5948 5947 5947 5946 5945 5944 5944 5943 5942 5941 5940 5940 5939 5938 5936 5934
5850 5851 5853 5855 5857 5860 5862 5866 5869 5872 5874 5877 5880 5882 5885 5888 5891 5893 5896 5899 5902 5905 5907 5910 5913 5915 5918 5920 5922 5925 5926 5927 5928 5930 5932 5933 5935 5936 5937 5939 5940 5941 5942 5945 5946 5947 5949 5950 5951 5952 5953 5954 5954 5954 5954 5954 5954 5954 5954 5954 5954 5954 5954 5953 5953 5953 5952 5951 5951 5950 5949 5949 5947 5946 5946 5945 5943 5942 5942 5942 5941 5940 5939 5939 5938 5936 5934 5932
5848 5849 5851 5852 5855 5857 5860 5863 5866 5869 5872 5875 5878 5880 5883 5886 5889 5892 5894 5896 5900 5903 5906 5909 5911 5914 5917 5919 5921 5923 5925 5926 5928 5929 5930 5932 5933 5935 5936 5938 5939 5940 5942 5944 5945 5946 5947 5949 5950 5951 5951 5952 5952 5953 5953 5953 5953 5953 5954 5954 5953 5953 5952 5952 5952 5951 5951 5950 5949 5948 5948 5948 5947 5944 5943 5943 5942 5940 5941 5941 5940 5939 5938 5937 5936 5935 5933 5930
5846 5847 5848 5850 5852 5855 5858 5861 5864 5867 5870 5873 5876 5879 5882 5884 5887 5890 5892 5895 5899 5902 5904 5907 5910 5913 5916 5918 5920 5922 5923 5925 5926 5928 5929 5931 5932 5934 5935 5937 5938 5940 5941 5943 5944 5946 5947 5948 5949 5950 5950 5951 5951 5952 5952 5952 5953 5953 5953 5953 5952 5952 5951 5951 5950 5949 5950 5949 5947 5947 5948 5947 5946 5944 5942 5942 5941 5939 5939 5940 5939 5938 5937 5936 5935 5933 5931 5929
5844 5845 5846 5848 5850 5853 5857 5859 5862 5865 5868 5871 5874 5877 5880 5883 5885 5888 5891 5894 5898 5900 5902 5905 5908 5911 5914 5916 5918 5920 5922 5923 5925 5927 5928 5930 5931 5933 5934 5935 5937 5939 5941 5943 5944 5945 5947 5947 5948 5948 5949 5950 5950 5951 5952 5952 5952 5953 5952 5952 5952 5952 5951 5951 5949 5948 5948 5947 5946 5946 5946 5946 5945 5943 5942 5941 5941 5939 5938 5938 5938 5936 5935 5934 5933 5931 5929 5927
5841 5843 5844 5846 5848 5852 5855 5857 5861 5864 5867 5869 5872 5875 5878 5881 5883 5887 5890 5893 5895 5898 5901 5903 5907 5910 5912 5914 5916 5918 5920 5922 5923 5925 5927 5928 5930 5932 5933 5934 5935 5937 5939 5941 5943 5945 5946 5946 5946 5948 5948 5949 5950 5951 5952 5952 5952 5952 5952 5951 5952 5952 5950 5951 5950 5948 5947 5945 5944 5945 5945 5944 5943 5942 5941 5940 5940 5939 5938 5937 5936 5935 5934 5932 5931 5930 5928 5926
5839 5840 5842 5844 5846 5850 5853 5856 5859 5862 5865 5868 5871 5874 5877 5880 5883 5886 5889 5891 5894 5897 5899 5902 5905 5908 5910 5912 5915 5917 5919 5920 5922 5923 5925 5927 5929 5930 5932 5933 5934 5936 5937 5940 5941 5943 5946 5947 5946 5946 5947 5948 5949 5950 5951 5951 5951 5951 5951 5951 5951 5951 5949 5949 5949 5947 5947 5944 5943 5943 5942 5942 5941 5940 5940 5939 5938 5938 5936 5935 5935 5933 5932 5931 5929 5928 5926 5924
5836 5838 5840 5842 5844 5847 5851 5854 5857 5860 5864 5867 5870 5873 5876 5879 5882 5885 5887 5889 5892 5894 5897 5900 5903 5906 5908 5911 5913 5915 5917 5919 5920 5922 5924 5925 5927 5929 5930 5932 5933 5935 5937 5939 5940 5941 5944 5945 5944 5944 5946 5947 5948 5948 5949 5950 5951 5950 5949 5949 5949 5949 5947 5947 5946 5945 5944 5943 5942 5941 5940 5939 5939 5938 5938 5937 5937 5936 5935 5934 5933 5931 5930 5929 5928 5926 5924 5922
5834 5835 5837 5840 5843 5846 5849 5853 5856 5859 5863 5866 5869 5872 5874 5877 5879 5881 5883 5886 5890 5892 5895 5898 5901 5904 5907 5909 5912 5913 5915 5917 5919 5921 5923 5924 5926 5927 5929 5930 5931 5934 5936 5937 5938 5940 5943 5943 5942 5944 5945 5945 5946 5947 5947 5949 5950 5949 5948 5948 5947 5947 5945 5945 5944 5943 5942 5942 5941 5939 5938 5937 5936 5935 5935 5935 5934 5934 5933 5932 5931 5929 5928 5927 5926 5924 5922 5920
5832 5833 5835 5838 5841 5845 5848 5852 5855 5858 5861 5864 5867 5870 5872 5874 5876 5879 5882 5885 5888 5891 5894 5897 5899 5902 5905 5908 5910 5912 5914 5916 5918 5920 5921 5923 5924 5926 5927 5928 5930 5932 5933 5934 5936 5939 5942 5942 5941 5942 5944 5944 5945 5946 5946 5947 5947 5947 5947 5946 5945 5945 5944 5943 5943 5942 5941 5940 5939 5937 5937 5936 5933 5931 5932 5932 5932 5931 5931 5929 5928 5927 5926 5925 5924 5922 5920 5918
5830 5832 5834 5837 5841 5844 5847 5851 5854 5857 5861 5863 5866 5868 5869 5872 5875 5878 5881 5884 5887 5890 5893 5895 5898 5901 5904 5907 5909 5911 5913 5915 5916 5918 5920 5922 5923 5925 5926 5927 5928 5930 5931 5933 5935 5937 5939 5940 5940 5941 5943 5943 5944 5945 5946 5945 5945 5946 5945 5944 5943 5943 5943 5942 5941 5941 5940 5939 5938 5936 5935 5934 5932 5930 5930 5930 5929 5929 5928 5927 5926 5925 5924 5923 5922 5920 5918 5917
5829 5831 5834 5837 5841 5844 5847 5850 5854 5857 5860 5862 5863 5866 5868 5871 5874 5877 5880 5884 5886 5889 5892 5894 5897 5901 5904 5906 5908 5910 5912 5914 5915 5917 5919 5920 5922 5923 5925 5926 5927 5929 5930 5932 5934 5936 5938 5940 5940 5940 5941 5942 5943 5944 5945 5944 5943 5944 5943 5942 5941 5941 5941 5940 5939 5938 5938 5937 5936 5935 5933 5931 5930 5929 5928 5927 5927 5926 5926 5925 5924 5923 5922 5920 5919 5918 5917 5916
5828 5831 5834 5837 5841 5844 5847 5850 5853 5856 5858 5859 5861 5864 5867 5870 5873 5877 5880 5883 5885 5888 5891 5893 5897 5900 5902 5905 5907 5909 5911 5912 5914 5916 5917 5919 5921 5922 5924 5925 5927 5928 5930 5931 5933 5935 5937 5939 5939 5939 5940 5942 5942 5941 5942 5942 5942 5942 5942 5940 5939 5938 5938 5937 5936 5935 5935 5935 5933 5932 5931 5928 5927 5927 5926 5924 5924 5924 5923 5922 5921 5920 5919 5918 5917 5916 5915 5913
5828 5831 5834 5837 5841 5844 5847 5850 5852 5854 5856 5858 5861 5864 5867 5870 5873 5876 5879 5882 5885 5888 5890 5893 5896 5898 5901 5904 5906 5907 5909 5911 5913 5914 5916 5918 5920 5921 5923 5925 5926 5927 5929 5931 5933 5934 5936 5938 5939 5939 5940 5941 5939 5939 5940 5940 5940 5940 5940 5939 5938 5937 5935 5935 5934 5933 5932 5932 5931 5930 5928 5926 5925 5925 5924 5923 5922 5921 5921 5920 5919 5918 5917 5915 5914 5913 5912 5911
5827 5831 5834 5838 5841 5843 5846 5849 5852 5854 5856 5858 5861 5864 5867 5871 5874 5876 5879 5882 5885 5887 5890 5893 5895 5897 5900 5902 5904 5906 5908 5910 5911 5913 5915 5917 5918 5920 5922 5924 5925 5927 5929 5931 5932 5934 5935 5937 5938 5938 5938 5937 5937 5938 5938 5938 5938 5937 5937 5936 5936 5935 5934 5933 5933 5931 5930 5929 5928 5927 5926 5923 5923 5923 5922 5921 5920 5919 5918 5917 5916 5915 5914 5913 5912 5910 5909 5908
5827 5830 5834 5837 5840 5843 5846 5849 5852 5855 5857 5859 5862 5865 5868 5871 5874 5877 5879 5882 5884 5887 5890 5892 5895 5897 5899 5901 5903 5905 5907 5909 5910 5912 5914 5916 5918 5920 5922 5923 5925 5927 5929 5930 5931 5933 5934 5935 5936 5936 5935 5935 5935 5936 5936 5936 5936 5934 5934 5933 5933 5932 5931 5931 5930 5929 5928 5927 5925 5925 5924 5921 5921 5921 5920 5919 5918 5916 5915 5914 5913 5912 5911 5910 5909 5908 5907 5906
5828 5831 5834 5837 5840 5843 5846 5849 5851 5854 5857 5860 5863 5866 5869 5872 5875 5877 5879 5881 5884 5887 5889 5892 5894 5897 5899 5901 5902 5904 5906 5908 5910 5912 5914 5916 5918 5920 5922 5923 5925 5927 5928 5929 5931 5932 5933 5934 5934 5934 5934 5934 5934 5933 5933 5933 5933 5932 5932 5931 5930 5930 5929 5928 5927 5925 5925 5924 5923 5923 5921 5919 5919 5919 5917 5916 5915 5914 5912 5910 5909 5908 5907 5907 5906 5905 5905 5903
5829 5832 5835 5838 5841 5844 5846 5848 5851 5854 5858 5862 5865 5868 5870 5873 5875 5877 5879 5882 5884 5887 5889 5892 5895 5897 5899 5901 5902 5904 5906 5908 5910 5912 5915 5916 5918 5920 5922 5923 5925 5926 5927 5928 5929 5931 5932 5932 5932 5932 5932 5932 5932 5932 5931 5930 5930 5930 5929 5929 5928 5927 5926 5925 5924 5923 5922 5921 5920 5919 5917 5916 5916 5916 5914 5913 5911 5910 5908 5906 5905 5904 5903 5903 5902 5902 5901 5900
5830 5833 5836 5839 5841 5844 5846 5849 5853 5857 5860 5863 5866 5869 5871 5873 5876 5878 5881 5883 5885 5888 5890 5892 5895 5897 5899 5901 5903 5905 5906 5908 5910 5912 5915 5916 5918 5920 5921 5923 5924 5925 5927 5928 5928 5929 5930 5930 5931 5930 5930 5930 5930 5930 5930 5929 5929 5928 5927 5927 5926 5925 5924 5923 5922 5920 5918 5918 5918 5916 5914 5913 5912 5912 5910 5908 5907 5906 5904 5902 5900 5898 5897 5897 5898 5898 5897 5896
5831 5834 5836 5839 5842 5845 5848 5852 5856 5859 5862 5865 5867 5870 5872 5875 5877 5880 5882 5884 5887 5889 5891 5893 5895 5898 5900 5901 5903 5905 5907 5909 5910 5912 5914 5916 5918 5920 5921 5922 5924 5925 5926 5927 5928 5928 5928 5928 5929 5929 5929 5928 5928 5928 5928 5928 5927 5926 5925 5925 5923 5922 5922 5920 5919 5917 5916 5916 5915 5913 5911 5910 5908 5907 5905 5904 5904 5904 5902 5901 5899 5897 5895 5893 5893 5893 5893 5892
5833 5836 5838 5841 5844 5848 5852 5856 5859 5862 5864 5867 5869 5872 5874 5877 5879 5882 5884 5886 5888 5890 5892 5895 5896 5899 5901 5903 5904 5906 5908 5909 5911 5912 5914 5916 5918 5919 5921 5922 5923 5924 5925 5926 5926 5927 5926 5926 5927 5927 5927 5927 5927 5926 5926 5925 5925 5924 5923 5922 5921 5920 5919 5918 5917 5915 5914 5913 5912 5910 5909 5907 5904 5903 5902 5902 5903 5901 5900 5899 5898 5896 5895 5892 5890 5891 5891 5890
5836 5839 5842 5845 5848 5852 5855 5858 5861 5864 5867 5869 5872 5874 5876 5879 5881 5884 5885 5888 5890 5891 5894 5896 5898 5899 5901 5903 5904 5906 5908 5909 5911 5913 5914 5916 5917 5918 5919 5921 5922 5922 5923 5924 5925 5925 5924 5924 5925 5925 5925 5925 5924 5924 5923 5923 5922 5921 5920 5919 5918 5917 5916 5915 5914 5912 5911 5910 5908 5907 5906 5904 5902 5900 5899 5899 5899 5897 5896 5895 5893 5892 5891 5890 5889 5889 5888 5887
5839 5842 5845 5849 5852 5855 5858 5861 5864 5866 5869 5871 5873 5876 5878 5881 5883 5885 5887 5889 5891 5892 5894 5897 5899 5900 5901 5903 5904 5906 5907 5909 5911 5912 5913 5915 5916 5917 5918 5919 5920 5921 5922 5922 5923 5923 5922 5922 5923 5923 5922 5921 5921 5921 5920 5920 5918 5917 5917 5916 5915 5914 5912 5911 5910 5909 5908 5907 5905 5904 5903 5902 5899 5896 5895 5896 5896 5894 5894 5894 5891 5889 5887 5887 5887 5886 5885 5884
5842 5845 5849 5852 5855 5858 5860 5863 5865 5868 5871 5873 5875 5877 5880 5882 5885 5887 5888 5890 5892 5894 5895 5897 5899 5900 5902 5903 5904 5905 5906 5908 5910 5911 5912 5913 5914 5915 5916 5917 5918 5919 5919 5920 5920 5920 5920 5920 5920 5921 5919 5917 5918 5918 5917 5916 5915 5913 5913 5913 5911 5910 5909 5908 5907 5906 5905 5904 5903 5901 5899 5898 5895 5892 5893 5895 5893 5892 5892 5890 5888 5887 5885 5885 5884 5882 5881 5880
5845 5849 5851 5854 5856 5859 5861 5863 5866 5869 5872 5875 5876 5878 5881 5883 5886 5888 5889 5891 5892 5894 5895 5897 5898 5900 5901 5902 5903 5905 5906 5907 5909 5910 5911 5912 5913 5913 5914 5915 5916 5917 5917 5918 5918 5918 5918 5918 5917 5918 5917 5914 5914 5915 5913 5912 5912 5909 5909 5909 5908 5906 5906 5905 5904 5903 5901 5901 5900 5898 5896 5894 5892 5890 5891 5892 5891 5889 5888 5886 5885 5884 5882 5881 5880 5879 5877 5876